Home > Weather > Prince George > Past weeks

Flag for Canada Weather for the Past 2 Weeks in Prince George, British Columbia, Canada

Now
27 °F

Clear.


Feels Like: 27 °F
Forecast: 24 / 39 °F
Wind: 2 mph from North

Location: Prince George

Current Time: Feb 9, 2016 at 4:07:54 AM

Latest Report: Feb 9, 2016 at 3:00 AM


Visibility: 9 mi

Pressure: 30.39 "Hg (28.26 "Hg at 573m altitude)

Humidity: 100%

Dew point: 27 °F

Location of Prince GeorgeLocation

Historic Weather in Prince George — Graph

°F

Prince George Temperature Yesterday

Maximum temperature yesterday: 41 °F (at 2:00 PM)
Minimum temperature yesterday: 32 °F (at 9:00 AM)
Average temperature yesterday: 36 °F

High & Low Weather Summary for the Past Weeks

 TemperatureHumidityPressure
High45 °F (Jan 27, 6:00 PM)100% (Jan 25, 2:00 AM)30.54 "Hg (Jan 25, 2:00 AM)
Low7 °F (Feb 3, 6:01 AM)45% (Feb 6, 3:00 PM)29.41 "Hg (Jan 28, 6:00 AM)
Average31 °F85%30.02 "Hg
* Reported Jan 25 2:00 AM — Feb 9 2:00 AM, Prince George, Weather by CustomWeather, © 2016

Note: Actual official high and low records may vary slightly from our data, if they occured in-between our weather recording intervals... More about our weather records

Advertising

Prince George Weather History for the Previous 24 Hours

 ConditionsComfort  
Time TempWeatherWind HumidityBarometerVisibility
2:00 AM
Tue, Feb 9
28 °FClear.3 mph100%30.40 "Hg9 mi
1:00 AM27 °FClear.3 mph100%30.41 "Hg9 mi
12:00 AM36 °FClear.3 mph81%30.40 "Hg9 mi
11:00 PM
Mon, Feb 8
32 °FClear.3 mph87%30.40 "Hg9 mi
10:00 PM39 °FClear.8 mph75%30.40 "Hg9 mi
9:00 PM34 °FClear.5 mph87%30.41 "Hg9 mi
8:00 PM36 °FClear.6 mph81%30.40 "Hg9 mi
7:00 PM37 °FClear.3 mph75%30.40 "Hg9 mi
6:00 PM36 °FPassing clouds.3 mph81%30.41 "Hg9 mi
5:00 PM41 °FSunny.7 mph70%30.40 "Hg9 mi
4:00 PM39 °FSunny.9 mph75%30.39 "Hg9 mi
3:00 PM41 °FSunny.12 mph66%30.39 "Hg9 mi
2:00 PM41 °FSunny.10 mph66%30.40 "Hg9 mi
1:00 PM39 °FSunny.15 mph70%30.38 "Hg9 mi
12:00 PM39 °FSunny.16 mph70%30.40 "Hg9 mi
11:00 AM37 °FSunny.12 mph70%30.43 "Hg9 mi
10:00 AM36 °FSunny.13 mph75%30.42 "Hg9 mi
9:00 AM32 °FSunny.8 mph80%30.42 "Hg9 mi
8:00 AM34 °FSunny.8 mph75%30.43 "Hg9 mi
7:00 AM34 °FClear.10 mph75%30.42 "Hg9 mi
6:00 AM36 °FClear.14 mph70%30.42 "Hg9 mi
5:00 AM36 °FClear.13 mph70%30.42 "Hg9 mi
4:00 AM34 °FClear.13 mph75%30.43 "Hg9 mi
Weather by CustomWeather, © 2016

See weather overviewHow to use our weather pages